カタログに戻る

STARLINK-4355

運用中通信SSO
NORAD 53048·PAYLOAD·🇺🇸 United States

打ち上げ Jul 11, 2022 から Vandenberg Space Force Base

Loading…

次のパス (今後24時間)

TLE

最新Source: CelesTrak SupGP

元期: Sep 14, 2026, 21:43 UTC

1 53048C 22077F   26257.90534722  .00075516  00000+0  23440-2 0  2577
2 53048  97.2857  73.7343 0001122  96.8615 203.7502 15.33404347    12

AllMySatでSTARLINK-4355をリアルタイム追跡

Download on the App Store